Terminal Aerodrome Forecast
Issued by NWS Cleveland, OH

Home | Current Version | Previous Version | Graphics & Text | Print | Product List | Glossary On
Versions: 1 2 3 4 5 6 7 8 9 10 11 12 13 14 15 16 17 18 19
000
FTUS41 KCLE 261730
TAFYNG
TAF
KYNG 261730Z 2618/2718 20012G18KT P6SM BKN030 BKN110
     FM261900 20015G22KT P6SM BKN050
     FM270100 19010KT P6SM -SHRA BKN050 OVC150
     FM270500 20012KT P6SM SCT040
     FM271000 20010KT P6SM BKN010
     FM271500 21013KT P6SM SCT015 BKN035=

USA.gov is the U.S. government's official web portal to all federal, state and local government web resources and services.